Regional Weather Roundup
Issued by NWS

Home | Current Version | Previous Version | Text Only | Print | Product List | Glossary Off
Versions: 1 2 3 4 5 6 7 8 9 10 11 12 13 14 15 16 17 18 19 20 21 22 23 24 25 26 27 28 29 30 31 32 33 34 35 36 37 38 39 40 41 42 43 44 45 46 47 48 49 50

000
ASUS43 KMPX 250301
RWRMN
WEATHER ROUNDUP FOR MINNESOTA
NATIONAL WEATHER SERVICE TWIN CITIES/CHANHASSEN MN
1000 PM CDT MON JUL 24 2017


NOTE: "FAIR" INDICATES FEW OR NO CLOUDS BELOW 12,000 FEET WITH NO
SIGNIFICANT WEATHER AND/OR OBSTRUCTIONS TO VISIBILITY. N/A MEANS
CURRENT SKY AND/OR WEATHER CONDITIONS ARE NOT AVAILABLE.

MNZ060>063-068>070-250400-
   Twin Cities Metro

CITY           SKY/WX    TMP DP  RH WIND       PRES   REMARKS
TWIN CITIES    MOCLDY    71  59  65 SE12      30.03S
ST PAUL        MOCLDY    70  62  76 SE12      30.04R
CRYSTAL        MOCLDY    71  57  61 SE9       30.01S
BLAINE         MOCLDY    72  61  68 SE8       30.03R
LAKEVILLE      PTCLDY    64  61  88 SE5       30.04S
EDEN PRAIRIE   MOCLDY    70  61  73 SE10      30.01F
SOUTH ST PAUL  MOCLDY    70  60  69 S3        30.04R
LAKE ELMO      FAIR      68  61  77 SE8       30.05S
$$
MNZ001>005-007-008-013>017-022>024-027-028-250400-
   Northwest Minnesota

CITY           SKY/WX    TMP DP  RH WIND       PRES   REMARKS
BEMIDJI        PTCLDY    66  60  80 SE8       29.96R
HALLOCK        PTCLDY    70  64  83 S8        29.86R
ROSEAU         CLEAR     70  63  78 S8        29.90R
WARROAD        PTCLDY    70  63  78 S8        29.91R
CROOKSTON      CLEAR     68  63  83 S8        29.91R
FOSSTON        CLEAR     64  59  82 S7        29.96R
DETROIT LAKES  CLEAR     70  61  73 S9        29.96R
MOORHEAD       CLEAR     70  63  78 SE7       29.92R
PARK RAPIDS    MOCLDY    70  61  73 SE10      29.97R
MAHNOMEN       FAIR      67  61  80 SE6       29.94R
$$
MNZ006-009>011-018-025>026-250400-
   North Central Minnesota

CITY           SKY/WX    TMP DP  RH WIND       PRES   REMARKS
BAUDETTE       CLEAR     68  58  70 S12       29.93R
FLAG ISLAND    CLEAR     72  63  73 S13       29.89R
INTL FALLS     CLEAR     65  56  72 SE5       29.97S
WASKISH        CLOUDY    66  61  82 SE3       29.95S
BIG FORK       CLOUDY    66  59  77 SE3       29.99S
LONGVILLE      MOCLDY    64  61  88 CALM      29.99R
GRAND RAPIDS   MOCLDY    66  60  81 SE6       30.02S
CRANE LAKE     CLEAR     57  55  94 CALM      30.02S
ORR            CLOUDY    64  54  68 SE5       29.99R
COOK           CLOUDY    63  57  82 CALM      30.02S
WALKER         FAIR      68  60  75 SE6       29.97R
$$
MNZ012-019>021-037-250400-
   Northeast Minnesota

CITY           SKY/WX    TMP DP  RH WIND       PRES   REMARKS
DULUTH         CLOUDY    59  53  80 E6        30.04F
ELY            CLOUDY    63  54  72 S6        30.04S
HIBBING        CLOUDY    60  57  89 SE7       30.02S
EVELETH        CLOUDY    63  54  73 SE6       30.05S
DULUTH HARBOR  CLOUDY    63  59  88 NE7       30.05R
TWO HARBORS    CLOUDY    63  55  77 CALM      30.04S
SILVER BAY     CLOUDY    57  54  88 CALM      30.05R
GRAND MARAIS     N/A     56  53  90 CALM      30.05R
G MARAIS ARPRT CLEAR     55  48  76 CALM      30.10S
$$
MNZ029>031-032-039>041-046>048-054>057-064-250400-
   West Central Minnesota

CITY           SKY/WX    TMP DP  RH WIND       PRES   REMARKS
FERGUS FALLS   CLOUDY    70  63  78 SE9       29.94R
WHEATON        CLOUDY    70  63  78 SE16      29.93R
MORRIS         LGT RAIN  70  64  83 S12       29.96R
ALEXANDRIA     PTCLDY    68  63  84 SE13      29.96S
ELBOW LAKE     FAIR      68  64  86 E10       29.96R
WADENA         PTCLDY    68  61  77 SE8       29.96S
GLENWOOD       CLOUDY    66  63  88 SE12      29.96R
APPLETON       CLOUDY    73  63  68 SE9G16    29.95R
BENSON         CLOUDY    72  63  73 S13G20    29.98R
ORTONVILLE     CLOUDY    72  63  73 SE12      29.95R
MADISON        CLOUDY    75  64  69 SE13G21   29.94R
WILLMAR        FAIR      72  63  73 E9        30.00F
$$
MNZ033>034-036-042>043-049>051-058-059-250400-
   Central Minnesota

CITY           SKY/WX    TMP DP  RH WIND       PRES   REMARKS
ST CLOUD       CLOUDY    69  62  78 S5        30.04R
SAUK CENTRE    DRIZZLE   66  63  88 SE10      29.96F
PAYNESVILLE    LGT RAIN  71  63  75 E9        30.01F
AITKIN         CLOUDY    64  61  88 SE6       29.99S
PINE RIVER     CLOUDY    70  61  73 SE8       30.01S
BRAINERD       CLOUDY    66  61  84 S8        30.00R
STAPLES        CLOUDY    68  57  68 SE10G17   29.97S
LONG PRAIRIE   FAIR      64  61  88 E13G22    29.96F
LITTLE FALLS   CLOUDY    68  59  73 SE9       30.02R
LITCHFIELD     MOCLDY    70  63  78 CALM      30.04R
BUFFALO        PTCLDY    68  59  72 CALM      30.04R
MAPLE LAKE     CLOUDY    69  62  78 CALM      30.05R
HUTCHINSON     PTCLDY    68  63  84 E5        30.03R
$$
MNZ037-044-045-052-053-250400-
   East Central Minnesota

CITY           SKY/WX    TMP DP  RH WIND       PRES   REMARKS
PRINCETON      PTCLDY    68  63  83 CALM      30.03R
MORA           PTCLDY    64  59  82 SE5       30.03F
CAMBRIDGE      MOCLDY    70  57  64 SE7       30.00F
RUSH CITY      CLOUDY    67  60  79 SE5       30.03S
MOOSE LAKE     MOCLDY    68  59  73 CALM      30.01S
HINCKLEY       FAIR      68  61  77 SE6       30.03S
CLOQUET        CLOUDY    61  54  77 CALM      30.04S
MCGREGOR       CLOUDY    64  59  82 SE6       30.02R
$$
MNZ071>073-080-081-089-090-097-098-250400-
   Southwest Minnesota

CITY           SKY/WX    TMP DP  RH WIND       PRES   REMARKS
MONTEVIDEO     PTCLDY    72  63  73 SE9       29.97R
GRANITE FALLS  MOCLDY    73  64  73 E7        29.98S
CANBY          CLOUDY    72  64  77 CALM      29.95R
MARSHALL       CLOUDY    71  65  81 SE10      29.96R
REDWOOD FALLS  CLOUDY    70  62  76 SE8       29.98R
OLIVIA         MOCLDY    70  61  73 E8        29.98S
PIPESTONE      CLEAR     73  63  68 S10       29.96S
WINDOM         CLEAR     70  63  78 SE9       30.00R
WORTHINGTON    CLEAR     69  63  81 SE7       30.00R
JACKSON        CLEAR     68  63  83 CALM      30.03R
TRACY          CLOUDY    71  65  81 SE8       29.98R
SLAYTON        CLEAR     69  63  79 SE8       29.99R
$$
MNZ065>067-074>077-082>085-091>093-250400-
   South Central Minnesota

CITY           SKY/WX    TMP DP  RH WIND       PRES   REMARKS
MANKATO        CLEAR     68  63  84 SE10      30.02S
NEW ULM        CLEAR     70  61  73 SE9       29.99S
ST JAMES       CLEAR     68  63  83 E10       30.01S
FAIRMONT       CLEAR     68  64  87 SE8       30.02R
GLENCOE        PTCLDY    68  64  87 SE7       30.01S
FARIBAULT      CLEAR     68  63  83 SE8       30.05S
OWATONNA       CLEAR     66  61  82 SE9       30.05R
WASECA         CLEAR     63  59  88 E7        30.05S
ALBERT LEA     CLEAR     68  63  83 SE8       30.06R
$$
MNZ078>079-086>088-094>096-250400-
   Southeast Minnesota

CITY           SKY/WX    TMP DP  RH WIND       PRES   REMARKS
ROCHESTER      CLEAR     61  59  93 SE8       30.07F
RED WING       CLOUDY    70  57  64 SE8       30.05R
STANTON        PTCLDY    68  61  78 E6        30.03S
DODGE CENTER   CLEAR     63  59  88 SE6       30.07S
WINONA         CLEAR     64  59  82 CALM      30.07S
AUSTIN         CLEAR     64  61  88 SE5       30.06S
PRESTON        CLEAR     65  59  82 CALM      30.09S
$$
ABBREVIATIONS USED IN REMARKS
   TC - TEMPERATURES IN CELSIUS
  WCI - WIND CHILL INDEX
   HX - HEAT INDEX
  VSB - VISIBILITY
$$




USA.gov is the U.S. government's official web portal to all federal, state and local government web resources and services.